Regional Weather Roundup
Issued by NWS

Home | Current Version | Previous Version | Graphics & Text | Print | Product List | Glossary On
Versions: 1 2 3 4 5 6 7 8 9 10 11 12 13 14 15 16 17 18 19 20 21 22 23 24 25 26 27 28 29 30 31 32 33 34 35 36 37 38 39 40 41 42 43 44 45 46 47 48 49 50
000
ASUS43 KLMK 131810
RWRKY
KENTUCKY REGIONAL WEATHER ROUNDUP
NATIONAL WEATHER SERVICE LOUISVILLE KY
100 PM EST SAT FEB 13 2016

NOTE "FAIR" INDICATES FEW OR NO CLOUDS BELOW 12,000 FEET
WITH NO SIGNIFICANT WEATHER AND/OR OBSTRUCTIONS TO VISIBILITY.

KYZ001>023-026-027-061>063-070>075-131900-
WESTERN AND SOUTH CENTRAL KENTUCKY

CITY           SKY/WX    TMP DP  RH WIND       PRES   REMARKS
PADUCAH        SUNNY     26   2  35 NE9       30.61F WCI  17
HENDERSON      SUNNY     19   5  53 NW6       30.62F WCI  11
OWENSBORO      SUNNY     23   1  38 N14       30.60F WCI  11
HOPKINSVILLE   SUNNY     24   4  40 N6        30.57F WCI  17
BOWLING GREEN  SUNNY     27   2  34 N6        30.56F WCI  20
GLASGOW        SUNNY     25   7  45 N8        30.53F WCI  16
$$

KYZ024-025-028>034-038-045-046-053-131900-
NORTH CENTRAL KENTUCKY

CITY           SKY/WX    TMP DP  RH WIND       PRES   REMARKS
LOUISVILLE/SDF MOSUNNY   24   0  35 VRB3      30.56F
LOUISVILLE/LOU SUNNY     22   0  38 N7        30.57F WCI  13
FORT KNOX      SUNNY     22  -1  37 NW9       30.52F WCI  11
$$

KYZ035>037-039>044-047>052-055>060-089>105-131900-
NORTHEAST KENTUCKY

CITY           SKY/WX    TMP DP  RH WIND       PRES   REMARKS
LEXINGTON      MOSUNNY   21   3  45 NW8       30.51F WCI  11
COVINGTON      FLURRIES  17   3  54 VRB7      30.53F WCI   8
FRANKFORT      MOSUNNY   21   1  41 N7        30.52F WCI  12
$$

KYZ054-064>069-076>088-106>120-131900-
SOUTHEAST KENTUCKY

CITY           SKY/WX    TMP DP  RH WIND       PRES   REMARKS
JACKSON        PTSUNNY   20   3  48 VRB7      30.44F WCI  11
LONDON         MOSUNNY   22   6  50 NW12G18   30.46F WCI  10
SOMERSET       SUNNY     23   5  46 NW9       30.51F WCI  13
MIDDLESBORO    MOSUNNY   25   9  49 NW10G16   30.45F WCI  15
MONTICELLO     CLEAR     24   8  50 N12G20    30.51F WCI  13
$$




USA.gov is the U.S. government's official web portal to all federal, state and local government web resources and services.